sat.trackr.live / text

‹ back to catalog

ONEWEB-0598

NORAD 55154 · 2023-004Q

PAYLOAD ACTIVE UNKNOWN

§ Identity

Operator
Country
UK
Launch date
2023-01-10
Launch site
AFETR
Launch vehicle
Mass (kg)
RCS (m²)

Purposes: comms

External: N2YO · Heavens-Above · Gunter

§ Orbital elements

Epoch: 2026-09-20T01:45:45.895968Z

Period
109.80 min
Inclination
87.8972°
Eccentricity
0.0001146
Mean motion
13.11416499 rev/d
Perigee alt
1,216.8 km
Apogee alt
1,218.6 km
Semi-major
7,595.8 km
B*
-1.5099e-3
RAAN
2.2061°
Arg perigee
89.6009°
Mean anomaly
270.5250°
Rev number
17,833

§ Raw data

ONEWEB-05981 55154U 23004Q   26263.07344787 -.00000522  00000+0 -15099-2 0  99942 55154  87.8972   2.2061 0001146  89.6009 270.5250 13.11416499178330

JSON: /api/v1/satellites/55154 · /tle

For live sub-satellite position, see the globe view (requires WebGL).

§ Visibility from observer

Set your observer location to see the next 7 days of passes ≥ 10°. The values pass through the URL so the page stays shareable.

No JS? Fill the form by hand. The geolocation button needs JavaScript.